[[{"header":{"parameterUnit":"m.s-1","parameterCategory":1,"la1":30.2991,"la2":30.254,"lo1":-89.0895,"lo2":-89.0444,"dy":0.0017,"dx":0.0017,"nx":28,"ny":28,"refTime":"2025-07-10T03:00:00:Z","depth":0,"parameterNumber":2,"parameterNumberName":"U-component_of_WINDS"},"data":[0,0,0,0,0,0,0,0,0,0,0,0,0,0,0,0,0,0,0,0,0,0,0,0,0,0,0,0,0,0,0,0,0,0,0,0,0,0,0,0,0,0,0,0,0,0,0,0,0,0,0,0,0,0,0,0,0,0,3.8231,3.8233,0,3.8368,3.837,3.8371,3.8337,3.8335,3.8332,3.833,3.847,3.8476,3.8483,0,0,0,0,0,0,0,0,0,0,0,0,0,3.7938,3.7944,3.8231,3.8233,3.8234,3.8368,3.837,3.8372,3.8338,3.8335,3.8331,3.8328,3.8468,3.8476,3.8483,0,0,0,0,0,0,0,0,0,0,0,0,0,3.8069,3.7946,3.8231,3.8234,3.8235,3.8368,3.837,3.8372,3.8339,3.8335,3.8331,3.8327,3.8466,3.8475,3.8484,3.8622,0,0,3.8513,3.8517,0,0,0,0,0,0,0,0,3.8062,3.808,3.8231,3.8234,3.8236,3.8332,3.8318,3.8456,3.834,3.8299,3.8329,3.8325,3.8427,3.844,3.8474,3.8629,3.8635,3.8514,3.8519,3.8523,3.8526,0,0,0,0,0,0,0,3.8053,3.8074,3.8285,3.8234,3.8236,3.8228,3.8242,3.8344,3.8384,3.8303,3.83,3.8317,3.8428,3.8465,3.8477,3.8637,3.8513,3.8522,3.8527,3.8531,3.8909,3.8913,0,0,0,0,0,0,3.8042,3.8067,3.8281,3.8289,3.8137,3.8236,3.8252,3.8305,3.8383,3.8391,3.832,3.8315,3.8451,3.8466,3.8482,3.8647,3.8523,3.8532,3.8537,3.8904,3.891,3.8915,0,0,0,0,0,0,3.8036,3.8062,3.8275,3.8178,3.8204,3.8245,3.8305,3.831,3.8347,3.8397,3.8403,3.8351,3.8449,3.8469,3.8587,3.8651,3.8536,3.8545,3.8899,3.8906,3.8912,3.8978,0,0,0,0,0,0,3.8028,3.806,3.8113,3.8179,3.821,3.8379,3.8309,3.8315,3.8363,3.8358,3.8427,3.8435,3.8447,3.8573,3.8596,3.8662,3.8552,3.8894,3.8902,3.891,3.897,3.8986,3.9,0,0,0,0,0,3.8018,3.8127,3.8116,3.8142,3.8277,3.8382,3.84,3.8411,3.8369,3.8422,3.8453,3.8433,3.8641,3.8586,3.8611,3.8681,3.889,3.89,3.8909,3.8964,3.8983,3.8999,0,0,0,0,0,0,3.8068,3.8136,3.8124,3.8258,3.8315,3.8376,3.8444,3.8432,3.8502,3.8493,3.8505,3.8521,3.8641,3.8673,3.861,3.8817,3.8759,3.8774,3.8791,3.881,3.8825,3.8813,3.856,0,0,0,0,0,3.8094,3.8175,3.8229,3.8342,3.8371,3.8403,3.8449,3.8453,3.8512,3.8536,3.8576,3.8634,3.8712,3.8763,3.8838,3.8975,3.8989,3.9036,3.905,3.9062,3.9075,3.9147,3.9168,3.8947,3.8947,3.8947,0,0,3.815,3.8197,3.8247,3.8354,3.8398,3.8479,3.8423,3.8513,3.8573,3.855,3.8662,3.8694,3.8759,3.8887,3.8945,3.8917,3.9139,3.9075,3.9084,3.909,3.9159,3.918,3.9199,3.8954,3.8953,3.8952,0,0,3.8293,3.8338,3.8435,3.8481,3.8548,3.8568,3.8591,3.8655,3.8675,3.8788,3.8771,3.8844,3.8979,3.9025,3.9066,3.9225,3.9208,3.9249,3.9325,3.9396,3.9413,3.9428,3.9483,3.9502,3.9262,3.9262,3.9263,0,3.8354,3.8477,3.8487,3.8578,3.8624,3.8606,3.8704,3.8747,3.8836,3.8868,3.8836,3.9003,3.9046,3.9182,3.9221,3.9256,3.9282,3.9241,3.941,3.9425,3.944,3.9492,3.9512,3.9267,3.9266,3.9266,3.9265,0,3.8547,3.8632,3.8703,3.8788,3.8842,3.8936,3.896,3.9014,3.9013,3.9036,3.9151,3.9202,3.9285,3.9318,3.9319,3.9455,3.9435,3.9407,3.9348,3.9465,3.9514,3.9534,3.9273,3.9272,3.927,3.9269,0,0,3.8725,3.8813,3.8839,3.8876,3.8948,3.9014,3.9107,3.9188,3.9233,3.9294,3.9371,3.9485,3.9458,3.9505,3.951,3.9572,3.9692,3.9536,3.9537,3.9561,3.9842,3.9861,3.9884,3.9681,3.9685,3.9688,3.9835,0,3.8873,3.9035,3.9046,3.9193,3.927,3.9253,3.9334,3.9386,3.941,3.9479,3.9506,3.9585,3.9545,3.9573,3.9634,3.9664,3.9748,3.9654,3.9751,3.9754,3.9733,3.991,3.9931,4.0067,3.9855,3.9858,3.986,0,3.9066,3.9132,3.9286,3.9345,3.9378,3.945,3.9524,3.9591,3.9649,3.9662,3.9714,3.971,3.9804,3.9743,3.9871,3.9807,3.9848,3.9869,3.9874,3.9882,3.9813,3.992,4.0111,4.0131,3.9891,3.9889,3.9886,0,3.9177,3.9305,3.9413,3.9445,3.9518,3.9568,3.9601,3.9656,3.9703,3.9768,3.9798,3.9874,3.9915,3.9973,3.9989,3.9944,4.0116,4.0057,4.0128,4.0127,4.0163,4.016,4.0361,4.0194,4.0193,4.0193,4.0192,0,3.934,3.9434,3.9463,3.9529,3.9634,3.9646,3.9748,3.9778,3.9826,3.9897,3.9888,3.9955,3.9973,4.0043,4.0057,4.0159,4.0179,4.0191,4.0193,4.019,4.0188,4.0215,4.0205,4.0198,4.0197,4.0196,4.0195,0,3.9481,3.9505,3.962,3.9679,3.9696,3.977,3.982,3.9883,3.9905,3.9995,4.0016,4.0052,4.0133,4.0155,4.0254,4.0262,4.0382,4.0377,4.0362,4.0361,4.0429,4.0422,4.0653,4.0683,4.0498,4.0499,4.0501,0,3.9581,3.9653,3.9719,3.9765,3.9799,3.9875,3.9922,3.9937,3.9987,4.0058,4.0112,4.0192,4.0257,4.0387,4.0421,4.0496,4.049,4.0566,4.0502,4.0496,4.0488,4.0483,4.0489,4.0578,4.058,4.0581,4.0583,0,3.9757,3.9764,3.9833,3.9906,3.9963,4.0022,4.0078,4.0116,4.0138,4.0195,4.0277,4.0327,4.0426,4.0505,4.058,4.0613,4.0601,4.0603,4.0623,4.062,4.0607,4.0612,4.0393,4.0597,4.0596,4.0595,4.0594,4.0593,3.9879,3.9941,3.9996,4.0072,4.0116,4.0168,4.0229,4.0258,4.0327,4.0408,4.0413,4.0502,4.0557,4.0656,4.0693,4.0763,4.074,4.0769,4.0776,4.0783,4.0787,4.0598,4.0777,4.0776,4.0776,4.0776,4.0775,0,4.0051,4.0086,4.0156,4.0233,4.0293,4.0277,4.0338,4.0389,4.0467,4.0519,4.0583,4.0676,4.0752,4.0792,4.0868,4.0915,4.0911,4.0934,4.093,4.0937,4.0804,4.0778,4.0936,4.0936,4.0936,4.0936,4.0936,4.0936,4.0148,4.025,4.0265,4.0388,4.0422,4.0508,4.0544,4.0591,4.0633,4.0738,4.08,4.0826,4.0873,4.0951,4.102,4.1029,4.1056,4.1081,4.1088,4.0963,4.0947,4.0931,4.0906,4.1088,4.1088,4.1214,4.1215,4.1216]},{"header":{"parameterUnit":"m.s-1","parameterCategory":1,"la1":30.2991,"la2":30.254,"lo1":-89.0895,"lo2":-89.0444,"dy":0.0017,"dx":0.0017,"nx":28,"ny":28,"refTime":"2025-07-10T03:00:00:Z","depth":0,"parameterNumber":3,"parameterNumberName":"V-component_of_WINDS"},"data":[0,0,0,0,0,0,0,0,0,0,0,0,0,0,0,0,0,0,0,0,0,0,0,0,0,0,0,0,0,0,0,0,0,0,0,0,0,0,0,0,0,0,0,0,0,0,0,0,0,0,0,0,0,0,0,0,0,0,0.7204,0.7204,0,0.7146,0.7146,0.7145,0.709,0.709,0.7089,0.7088,0.7028,0.7027,0.7026,0,0,0,0,0,0,0,0,0,0,0,0,0,0.7265,0.7265,0.7204,0.7204,0.7203,0.7147,0.7146,0.7145,0.7091,0.709,0.7089,0.7088,0.7028,0.7027,0.7026,0,0,0,0,0,0,0,0,0,0,0,0,0,0.7226,0.7264,0.7204,0.7169,0.7165,0.7147,0.7146,0.7145,0.7091,0.709,0.7089,0.7088,0.7029,0.7027,0.7026,0.7038,0,0,0.7022,0.7021,0,0,0,0,0,0,0,0,0.7229,0.7224,0.7175,0.7171,0.7167,0.7125,0.7145,0.7109,0.7091,0.7119,0.7088,0.7087,0.7061,0.7057,0.7048,0.7035,0.7032,0.7021,0.7021,0.702,0.702,0,0,0,0,0,0,0,0.7231,0.7226,0.7181,0.7174,0.7169,0.7155,0.7149,0.7138,0.7096,0.7116,0.7112,0.7106,0.7059,0.705,0.7046,0.7031,0.7021,0.702,0.7019,0.7019,0.7023,0.7024,0,0,0,0,0,0,0.724,0.7229,0.7183,0.718,0.7196,0.7155,0.7147,0.7139,0.7096,0.7089,0.7107,0.7104,0.7053,0.7048,0.7044,0.7054,0.702,0.7019,0.7018,0.7022,0.7023,0.7024,0,0,0,0,0,0,0.7241,0.7236,0.7185,0.7203,0.7196,0.7155,0.7146,0.7139,0.713,0.7089,0.7082,0.7106,0.7052,0.7046,0.7039,0.7051,0.7018,0.7017,0.7021,0.7022,0.7023,0.7075,0,0,0,0,0,0,0.7243,0.7237,0.7242,0.7204,0.7195,0.7183,0.7147,0.7138,0.7128,0.7123,0.7086,0.7079,0.7051,0.7042,0.7038,0.7049,0.7015,0.7019,0.7021,0.7023,0.7072,0.7078,0.7083,0,0,0,0,0,0.7246,0.7259,0.7242,0.7237,0.72,0.7184,0.7178,0.7146,0.7129,0.7133,0.7106,0.708,0.705,0.7042,0.7037,0.7047,0.7018,0.7021,0.7023,0.7069,0.7077,0.7083,0,0,0,0,0,0,0.7299,0.7253,0.7235,0.7236,0.7214,0.7174,0.7178,0.7155,0.7137,0.7133,0.7093,0.7085,0.7082,0.7064,0.7055,0.7055,0.7031,0.7032,0.7068,0.7074,0.708,0.7085,0.7014,0,0,0,0,0,0.7311,0.7302,0.7262,0.7267,0.7257,0.722,0.7211,0.7188,0.7163,0.7154,0.7127,0.7104,0.7089,0.7081,0.7065,0.7069,0.7059,0.7073,0.7079,0.7083,0.7085,0.7085,0.709,0.7031,0.7031,0.7031,0,0,0.7336,0.731,0.7307,0.7277,0.7257,0.7248,0.7212,0.7205,0.7197,0.7153,0.7145,0.7124,0.7096,0.7094,0.7092,0.7078,0.7099,0.7086,0.709,0.7089,0.7087,0.7093,0.7098,0.7033,0.7032,0.7032,0,0,0.7376,0.7356,0.7357,0.7338,0.7309,0.7283,0.7284,0.7247,0.7232,0.7223,0.7189,0.7179,0.7155,0.7136,0.7123,0.7154,0.7129,0.715,0.7179,0.7179,0.7184,0.7188,0.7198,0.7203,0.7152,0.7152,0.7152,0,0.7411,0.7397,0.7361,0.7355,0.7342,0.7301,0.7302,0.7285,0.7252,0.7244,0.7229,0.7197,0.7175,0.7168,0.7175,0.7166,0.7164,0.7155,0.7186,0.719,0.7193,0.7202,0.7207,0.7155,0.7154,0.7154,0.7154,0,0.744,0.743,0.7435,0.7404,0.7392,0.7389,0.7352,0.7344,0.7321,0.7297,0.7288,0.726,0.7237,0.7233,0.7211,0.7222,0.7215,0.7194,0.7168,0.7202,0.721,0.7214,0.7159,0.7158,0.7157,0.7156,0,0,0.7514,0.7462,0.7465,0.745,0.7413,0.7405,0.7399,0.7377,0.7371,0.7349,0.7343,0.7323,0.7302,0.7288,0.7262,0.7262,0.7288,0.7241,0.7239,0.725,0.7298,0.7314,0.7319,0.7271,0.7271,0.7272,0.73,0,0.7548,0.7537,0.7504,0.7503,0.7493,0.7453,0.7448,0.7425,0.7402,0.7389,0.7363,0.7349,0.7324,0.7315,0.7313,0.7286,0.7297,0.7283,0.7264,0.7264,0.7273,0.7324,0.7341,0.737,0.7303,0.7304,0.7304,0,0.7588,0.7568,0.7566,0.7529,0.7523,0.752,0.7496,0.7485,0.7457,0.744,0.7423,0.7395,0.7386,0.7362,0.7348,0.7339,0.733,0.7315,0.7315,0.7312,0.7287,0.7323,0.7378,0.7383,0.7309,0.7309,0.7308,0,0.7642,0.7615,0.761,0.7598,0.7555,0.7553,0.7535,0.7506,0.7494,0.7473,0.7465,0.7443,0.7431,0.7415,0.7381,0.7366,0.7371,0.7344,0.7356,0.7357,0.7359,0.736,0.7414,0.7353,0.7353,0.7353,0.7352,0,0.7684,0.7684,0.7633,0.763,0.7629,0.759,0.7589,0.7567,0.7541,0.7532,0.7496,0.7488,0.7444,0.743,0.7404,0.7396,0.7391,0.7377,0.737,0.738,0.7382,0.7374,0.7371,0.7354,0.7353,0.7353,0.7353,0,0.7744,0.7711,0.7702,0.7662,0.7651,0.7652,0.7617,0.7612,0.7586,0.7575,0.757,0.7529,0.7512,0.7476,0.7449,0.743,0.7429,0.7416,0.7439,0.7434,0.7448,0.7448,0.75,0.7504,0.744,0.7441,0.7441,0,0.7774,0.7773,0.7732,0.7724,0.7707,0.7694,0.7682,0.7643,0.7631,0.7599,0.7597,0.7577,0.7558,0.7532,0.75,0.7478,0.7464,0.7484,0.7461,0.7471,0.7465,0.7465,0.7465,0.749,0.7491,0.7491,0.7492,0,0.783,0.7812,0.7797,0.7774,0.7761,0.7741,0.772,0.7715,0.7671,0.766,0.7641,0.7627,0.7599,0.7578,0.7552,0.7532,0.7504,0.7499,0.7501,0.7512,0.7525,0.7518,0.7453,0.7498,0.7498,0.7497,0.7497,0.7497,0.7875,0.7872,0.7843,0.7826,0.7805,0.7786,0.7779,0.7752,0.7736,0.771,0.7688,0.7671,0.7641,0.7603,0.7585,0.757,0.7557,0.7559,0.756,0.7561,0.7566,0.7527,0.7565,0.7565,0.7565,0.7565,0.7564,0,0.7929,0.7908,0.7892,0.7863,0.785,0.7825,0.7799,0.7789,0.7776,0.775,0.7733,0.7711,0.7691,0.7656,0.7633,0.7628,0.7615,0.7623,0.7624,0.7619,0.7579,0.758,0.7635,0.7635,0.7635,0.7634,0.7634,0.7634,0.7955,0.7949,0.7928,0.791,0.7888,0.7872,0.786,0.7841,0.7821,0.7798,0.7781,0.7759,0.7729,0.7703,0.7683,0.7674,0.7667,0.7679,0.7666,0.7629,0.7622,0.7616,0.7617,0.7678,0.7678,0.7707,0.7707,0.7707]}]]